Погода в Спокане

США     47°40′24″N   117°23′47″W
темп.,
°C
ветер,
м/с
пор.,
м/с
влажн.,
%
обл.,
%
осадки,
мм/ч
давл.,
гПа
погр.,
м
15 мая, сб
сб1523:00+16зсз12392 0.0 101243
02:00+13св11520 0.0 101319
05:00+11ссв12603 0.0 101443
08:00+15ссв12470 0.0 1015277
11:00+21с12320 0.0 1013695
14:00+25ссз03205 0.0 10122473
17:00+25ююз23217 0.0 10102360
20:00+21юз25355 0.0 1009123
16 мая, вс
вс1623:00+18юз11392 0.0 101016
02:00+15вюв11435 0.0 101011
05:00+14юв114844 0.0 101122
08:00+17в11405 0.0 1011272
11:00+24ююз122842 0.0 10101013
14:00+26зюз4422100 0.0 10082263
17:00+26юз452243 0.0 10062105
20:00+22ююз24365 0.0 1006100
17 мая, пн
пн1723:00+18ююв23455 0.0 100664
02:00+15ююв28515 0.0 1007289
05:00+13ююв38624 0.0 1007428
08:00+16ю475643 0.0 1008733
11:00+21ююз684234 0.0 10071408
14:00+24юз810260 0.0 10062309
17:00+23юз7102586 0.0 10051916
20:00+19зюз3832100 0.0 1005413
18 мая, вт
вт1823:00+15юз6114259 0.0 1008509
02:00+12юз612515 0.0 1010643
05:00+10ююз6135949 0.0 1012694
08:00+11ююз6105646 0.0 10141125
11:00+14юз71139100 0.0 10132305
14:00+16юз8102984 0.0 10132505
17:00+16юз6923100 0.0 10122469
20:00+13зюз4731100 0.0 10131061
19 мая, ср
ср1923:00+11юз2436100 0.0 1014213
02:00+10ю2437100 0.0 1014242
05:00+9ю3637100 0.0 1015312
08:00+11ю2338100 0.0 1016788
11:00+15юв1231100 0.0 10141976
14:00+16ссв1129100 0.0 10111855
17:00+17св2231100 0.0 10092014
20:00+14с2541100 0.0 1007441